EN

Hourly Weather La Aurora

Today, 25 July, Sunday

Time Temperature Precipitation Wind Pressure Humidity
00:00 +17°C° 0.7 mm 0 mps 642 mmHg 92%
01:00 +17°C° 0.7 mm 0 mps 642 mmHg 92%
02:00 +16°C° 0.7 mm 0 mps 642 mmHg 92%
03:00 +16°C° 0.2 mm 0 mps 642 mmHg 92%
04:00 +16°C° 0.2 mm 0 mps 642 mmHg 92%
05:00 +16°C° 0.2 mm 0 mps 642 mmHg 92%
06:00 +17°C° 0 mm 0 mps 642 mmHg 87%
07:00 +19°C° 0 mm 0 mps 643 mmHg 82%
08:00 +21°C° 0 mm 0 mps 643 mmHg 76%
09:00 +23°C° 0 mm 0 mps 644 mmHg 66%
10:00 +26°C° 0 mm 0 mps 644 mmHg 56%
11:00 +28°C° 0 mm 0 mps 644 mmHg 45%
12:00 +29°C° 0 mm 0 mps 644 mmHg 41%
13:00 +32°C° 0 mm 1 mps 643 mmHg 38%
14:00 +33°C° 0 mm 1 mps 642 mmHg 34%
15:00 +30°C° 0.7 mm 2 mps 642 mmHg 44%
16:00 +27°C° 0.7 mm 3 mps 641 mmHg 55%
17:00 +25°C° 0.7 mm 4 mps 641 mmHg 65%
18:00 +22°C° 0.7 mm 3 mps 641 mmHg 72%
19:00 +20°C° 0.7 mm 2 mps 641 mmHg 78%
20:00 +19°C° 0.7 mm 1 mps 641 mmHg 85%
21:00 +19°C° 0 mm 1 mps 641 mmHg 85%
22:00 +19°C° 0 mm 1 mps 641 mmHg 85%
23:00 +18°C° 0 mm 2 mps 642 mmHg 85%

Tomorrow, 26 July, Monday

Time Temperature Precipitation Wind Pressure Humidity
00:00 +18°C° 0 mm 1 mps 641 mmHg 86%
01:00 +18°C° 0 mm 1 mps 641 mmHg 86%
02:00 +16°C° 0 mm 0 mps 640 mmHg 87%
03:00 +16°C° 0 mm 0 mps 640 mmHg 87%
04:00 +15°C° 0 mm 0 mps 640 mmHg 88%
05:00 +15°C° 0 mm 0 mps 640 mmHg 89%
06:00 +19°C° 0 mm 1 mps 641 mmHg 81%
07:00 +21°C° 0 mm 1 mps 641 mmHg 74%
08:00 +23°C° 0 mm 1 mps 642 mmHg 67%
09:00 +25°C° 0 mm 1 mps 643 mmHg 58%
10:00 +27°C° 0 mm 1 mps 643 mmHg 49%
11:00 +30°C° 0 mm 1 mps 643 mmHg 41%
12:00 +31°C° 0 mm 1 mps 643 mmHg 37%
13:00 +31°C° 0 mm 1 mps 642 mmHg 33%
14:00 +32°C° 0 mm 1 mps 642 mmHg 29%
15:00 +31°C° 0 mm 1 mps 641 mmHg 33%
16:00 +30°C° 0 mm 1 mps 641 mmHg 38%
17:00 +29°C° 0 mm 1 mps 640 mmHg 43%
18:00 +27°C° 0 mm 1 mps 640 mmHg 49%
19:00 +25°C° 0 mm 1 mps 640 mmHg 56%
20:00 +23°C° 0 mm 1 mps 640 mmHg 62%
21:00 +22°C° 0 mm 1 mps 641 mmHg 67%
22:00 +21°C° 0 mm 1 mps 641 mmHg 73%
23:00 +20°C° 0 mm 1 mps 641 mmHg 78%

Day after tomorrow, 27 July, Tuesday

Time Temperature Precipitation Wind Pressure Humidity
00:00 +20°C° 0.3 mm 1 mps 641 mmHg 81%
01:00 +17°C° 0.3 mm 0 mps 641 mmHg 85%
02:00 +17°C° 0.3 mm 0 mps 640 mmHg 88%
03:00 +17°C° 0.1 mm 0 mps 640 mmHg 89%
04:00 +16°C° 0.1 mm 0 mps 641 mmHg 90%
05:00 +16°C° 0.1 mm 0 mps 641 mmHg 91%
06:00 +18°C° 0 mm 0 mps 642 mmHg 85%
07:00 +20°C° 0 mm 0 mps 642 mmHg 80%
08:00 +21°C° 0 mm 0 mps 643 mmHg 74%
09:00 +24°C° 0 mm 0 mps 643 mmHg 64%
10:00 +26°C° 0 mm 0 mps 644 mmHg 55%
11:00 +29°C° 0 mm 0 mps 644 mmHg 45%
12:00 +29°C° 0 mm 0 mps 643 mmHg 42%
13:00 +31°C° 0 mm 1 mps 643 mmHg 38%
14:00 +32°C° 0 mm 1 mps 642 mmHg 35%
15:00 +28°C° 1 mm 2 mps 641 mmHg 49%
16:00 +25°C° 1 mm 2 mps 641 mmHg 63%
17:00 +20°C° 1 mm 3 mps 640 mmHg 77%
18:00 +19°C° 0.1 mm 2 mps 640 mmHg 77%
19:00 +20°C° 0.1 mm 1 mps 640 mmHg 77%
20:00 +19°C° 0.1 mm 1 mps 640 mmHg 77%
21:00 +19°C° 0 mm 1 mps 641 mmHg 77%
22:00 +19°C° 0 mm 1 mps 641 mmHg 77%
23:00 +19°C° 0 mm 1 mps 642 mmHg 77%

28 July, Wednesday

Time Temperature Precipitation Wind Pressure Humidity
00:00 +19°C° 0.1 mm 1 mps 641 mmHg 80%
01:00 +18°C° 0.1 mm 1 mps 641 mmHg 83%
02:00 +18°C° 0.1 mm 1 mps 641 mmHg 86%
03:00 +18°C° 0 mm 1 mps 641 mmHg 87%
04:00 +16°C° 0 mm 0 mps 641 mmHg 89%
05:00 +16°C° 0 mm 0 mps 641 mmHg 90%
06:00 +17°C° 0 mm 0 mps 642 mmHg 85%
07:00 +19°C° 0 mm 0 mps 642 mmHg 79%
08:00 +21°C° 0 mm 0 mps 643 mmHg 74%
09:00 +23°C° 0 mm 0 mps 643 mmHg 64%
10:00 +26°C° 0 mm 0 mps 644 mmHg 54%
11:00 +28°C° 0 mm 0 mps 644 mmHg 44%
12:00 +29°C° 0 mm 0 mps 643 mmHg 43%
13:00 +31°C° 0 mm 1 mps 643 mmHg 41%
14:00 +31°C° 0 mm 1 mps 642 mmHg 40%
15:00 +27°C° 1 mm 1 mps 641 mmHg 54%
16:00 +24°C° 1 mm 1 mps 641 mmHg 67%
17:00 +20°C° 1 mm 1 mps 640 mmHg 81%
18:00 +20°C° 0.3 mm 1 mps 640 mmHg 83%
19:00 +19°C° 0.3 mm 1 mps 641 mmHg 85%
20:00 +19°C° 0.3 mm 1 mps 641 mmHg 88%
21:00 +19°C° 0 mm 1 mps 641 mmHg 89%
22:00 +18°C° 0 mm 1 mps 641 mmHg 90%
23:00 +18°C° 0 mm 1 mps 641 mmHg 92%

29 July, Thursday

Time Temperature Precipitation Wind Pressure Humidity
00:00 +18°C° 0 mm 1 mps 641 mmHg 91%
01:00 +16°C° 0 mm 0 mps 641 mmHg 91%
02:00 +16°C° 0 mm 0 mps 641 mmHg 91%
03:00 +16°C° 0 mm 0 mps 641 mmHg 91%
04:00 +16°C° 0 mm 0 mps 641 mmHg 91%
05:00 +16°C° 0 mm 0 mps 641 mmHg 90%
06:00 +20°C° 0 mm 1 mps 641 mmHg 85%
07:00 +21°C° 0 mm 1 mps 642 mmHg 80%
08:00 +22°C° 0 mm 1 mps 643 mmHg 75%
09:00 +25°C° 0 mm 1 mps 643 mmHg 65%
10:00 +27°C° 0 mm 1 mps 643 mmHg 55%
11:00 +29°C° 0 mm 2 mps 643 mmHg 45%
12:00 +30°C° 0 mm 1 mps 643 mmHg 44%
13:00 +30°C° 0 mm 1 mps 642 mmHg 43%
14:00 +30°C° 0 mm 1 mps 641 mmHg 42%
15:00 +28°C° 0.5 mm 1 mps 641 mmHg 55%
16:00 +25°C° 0.5 mm 1 mps 641 mmHg 68%
17:00 +21°C° 0.5 mm 2 mps 640 mmHg 82%
18:00 +21°C° 1 mm 1 mps 640 mmHg 86%
19:00 +21°C° 1 mm 1 mps 641 mmHg 90%
20:00 +18°C° 1 mm 0 mps 641 mmHg 94%
21:00 +20°C° 0.6 mm 1 mps 641 mmHg 95%
22:00 +19°C° 0.6 mm 1 mps 641 mmHg 95%
23:00 +19°C° 0.6 mm 1 mps 642 mmHg 95%

30 July, Friday

Time Temperature Precipitation Wind Pressure Humidity
00:00 +19°C° 0 mm 1 mps 641 mmHg 95%
01:00 +19°C° 0 mm 1 mps 641 mmHg 95%
02:00 +16°C° 0 mm 0 mps 641 mmHg 95%
03:00 +18°C° 0 mm 1 mps 641 mmHg 95%
04:00 +18°C° 0 mm 1 mps 641 mmHg 94%
05:00 +18°C° 0 mm 1 mps 641 mmHg 94%
06:00 +19°C° 0 mm 1 mps 642 mmHg 88%
07:00 +21°C° 0 mm 1 mps 642 mmHg 82%
08:00 +22°C° 0 mm 1 mps 643 mmHg 76%
09:00 +24°C° 0 mm 2 mps 643 mmHg 66%
10:00 +26°C° 0 mm 2 mps 643 mmHg 56%
11:00 +28°C° 0 mm 2 mps 643 mmHg 46%
12:00 +29°C° 0 mm 1 mps 643 mmHg 45%
13:00 +30°C° 0 mm 1 mps 642 mmHg 43%
14:00 +28°C° 0 mm 0 mps 642 mmHg 42%
15:00 +28°C° 0 mm 0 mps 641 mmHg 46%
16:00 +27°C° 0 mm 0 mps 641 mmHg 50%
17:00 +26°C° 0 mm 0 mps 641 mmHg 53%
18:00 +26°C° 0 mm 1 mps 641 mmHg 58%
19:00 +25°C° 0 mm 1 mps 641 mmHg 63%
20:00 +23°C° 0 mm 2 mps 641 mmHg 68%
21:00 +22°C° 0.4 mm 1 mps 641 mmHg 74%
22:00 +21°C° 0.4 mm 1 mps 642 mmHg 80%
23:00 +20°C° 0.4 mm 1 mps 642 mmHg 86%
Show more